Martín Colombo

Olheiro-Chefe - Banfield
25 Nov 2027
Quinta-feira
Processo

Personalidade

Adaptabilidade (15) Ambição (3) Controvérsia (18) Lealdade (11) Pressão (8) Profissionalismo (15) Espírito Esportivo (12) Temperamento (19)

Perfil

Estilo de Treinamento Democrático
Licença Continental B
Determinação 6
Gestão de Pessoas 4
Motivação 13
Disciplina 8
Satisfação no Trabalho
100%
Fadiga
0%
Função Olheiro-Chefe
Salário 36.7K p/s
Contrato 14.03.2029

Desempenho

Comportamento Bom
Eficácia do Treinamento
34%
Desenvolvimento do Jogador
35%
Prevenção de Lesões
50%
Implementação Tática
35%

Eventos Recentes

Avaliou um jogador agora
Participou de uma reunião de recrutamento agora
Recomendou um alvo de transferência agora
Recomendou um alvo de transferência agora
Recomendou um alvo de transferência agora
Recomendou um alvo de transferência agora
Recomendou um alvo de transferência agora
Avaliou um jogador 7d atrás

Monitorando agora

196
Jogador Clube Status Habilidade Confiança Observado Última observação Último voto
Mauro Carrizo Atlético Tucumán Ativo 106 / 112 40% 3 24.11.2027 -
Colin Guske Orlando City Ativo 97 / 94 40% 3 24.11.2027 -
Julio Patiño Fortaleza CEIF Ativo 79 / 87 40% 5 23.11.2027 -
Matías Canedo Rampla Juniors Ativo 77 / 98 40% 4 23.11.2027 -
Nicolas Sport Recife Ativo 109 / 118 40% 2 22.11.2027 -
Hervin Goyes Deportivo Pasto Ativo 115 / 111 40% 2 22.11.2027 -
Axel Tape Bayer Leverkusen Ativo 138 / 137 40% 3 21.11.2027 -
Alejandro Almaraz Nueva Chicago Ativo 107 / 122 40% 1 21.11.2027 -
Onuorah Onyedika Kun Khalifat Ativo 93 / 97 40% 2 20.11.2027 -
Hian Rincón Once Caldas Ativo 95 / 100 40% 1 20.11.2027 -
Mikkel Hope Haugesund Ativo 84 / 109 40% 4 18.11.2027 -
Tiago Gordillo San Miguel Ativo 81 / 92 40% 1 18.11.2027 -
Joel Ezra Enyimba Ativo 85 / 97 40% 2 17.11.2027 -
Lucas Camejo River Plate Ativo 87 / 93 40% 3 17.11.2027 -
Celías Ingenthron Vélez Ativo 116 / 116 40% 2 16.11.2027 -
Olaniyi Saheed Kwara United Ativo 77 / 108 40% 1 13.11.2027 -
Diego Vargas San Marcos de Arica Ativo 84 / 103 40% 2 11.11.2027 -
Yury Oyarzo Racing Ativo 101 / 103 40% 3 10.11.2027 -
Gift Udoh Ikorodu City Ativo 81 / 98 40% 3 08.11.2027 -
Sam Curtis Cambridge United Ativo 119 / 103 40% 1 07.11.2027 -
Dominik Chong Qui Atlanta United FC Ativo 98 / 100 40% 2 06.11.2027 -
Samuel Martín Millonarios Ativo 99 / 107 40% 2 06.11.2027 -
Samuel Posada Leones Ativo 91 / 87 40% 2 04.11.2027 -
Jovan Milosavljević Kalmar FF Ativo 85 / 109 40% 1 04.11.2027 -
Vitor Reis Manchester City Ativo 131 / 153 40% 2 02.11.2027 -
Mohamed Bolivar Barranquilla Ativo 83 / 90 40% 2 01.11.2027 -
Dylan Gorosito Villarreal Ativo 133 / 119 40% 1 28.10.2027 -
Federico Bonetto River Plate Ativo 71 / 87 40% 1 27.10.2027 -
Juan Camilo Córdoba Deportivo Pereira Ativo 77 / 90 40% 5 24.10.2027 -
Elkin Rivero Atletico Nacional Ativo 104 / 107 40% 1 24.10.2027 -
Ángel Aguayo Sol de America Ativo 102 / 98 40% 1 23.10.2027 -
Juan Morán Godoy Cruz Ativo 101 / 120 40% 1 23.10.2027 -
Jackson Imbiakha Muranga Seal Ativo 88 / 74 40% 1 22.10.2027 -
Felipe Obradovich Ferro Carril Oeste Ativo 108 / 124 40% 1 22.10.2027 -
Carlos Angulo Deportivo Pasto Ativo 80 / 93 40% 1 17.10.2027 -
José Correa Deportivo Tachira Ativo 86 / 105 40% 1 15.10.2027 -
Julián Bazán Philadelphia Union Ativo 108 / 119 40% 1 11.10.2027 -
Chibueze Oputa Rangers International Ativo 104 / 103 40% 1 06.10.2027 -
Thiago Fusco Colón Ativo 104 / 100 51% 1 05.07.2027 -
Facundo Torres LOSC Lille Negociando 134 / 134 67% 1 01.06.2027 Aprovar
Bitello SC Freiburg Negociando 135 / 135 68% 1 01.06.2027 Aprovar
Jacques Siwe Rubin Ativo 126 / 108 40% 1 31.05.2027 -
Pablo Ibañez Alavés Ativo 146 / 139 40% 1 29.05.2027 -
Weverson Gil Vicente Ativo 128 / 114 40% 1 29.05.2027 -
Christ Inao Oulaï Fiorentina Ativo 151 / 133 40% 1 27.05.2027 -
Rodrigo Mora AS Roma Ativo 131 / 136 40% 2 25.05.2027 -
Christian Krasnodar Ativo 148 / 120 40% 3 24.05.2027 -
Harvey White Stevenage Ativo 98 / 116 40% 1 22.05.2027 -
Caspar Jander Southampton Ativo 129 / 133 40% 2 16.05.2027 -
Danil Glebov Dinamo Moscow Ativo 138 / 129 40% 3 11.05.2027 -
Ilias Akhomach Villarreal Ativo 146 / 131 40% 3 07.05.2027 -
Yussif Saidu Zaragoza Ativo 124 / 133 40% 3 06.05.2027 -
Maksim Kireev KV Mechelen Ativo 137 / 125 40% 1 06.05.2027 -
Ugochukwu Iwu Rubin Ativo 104 / 115 40% 1 03.05.2027 -
Mattia Viti Sampdoria Ativo 139 / 121 40% 1 28.04.2027 -
Facundo Bernal Betis Ativo 130 / 142 40% 1 27.04.2027 -
Arsen Adamov Akhmat Grozny Ativo 109 / 128 40% 3 25.04.2027 -
Victor Parada Spartak Moscow Ativo 108 / 136 40% 2 21.04.2027 -
Roberto Fernández Lokomotiv Moscow Ativo 118 / 119 40% 2 08.04.2027 -
Andrey Langovich Rostov Ativo 116 / 118 40% 1 08.04.2027 -
Lechi Sadulaev Akhmat Grozny Ativo 135 / 112 40% 1 31.03.2027 -
Tomás Ribeiro Cultural Leonesa Ativo 124 / 131 40% 2 30.03.2027 -
Ryan Alebiosu Blackburn Rovers Ativo 124 / 126 40% 1 30.03.2027 -
Arthur Gomes Dinamo Moscow Ativo 129 / 119 40% 3 19.03.2027 -
Konstantin Kuchaev Rostov Ativo 127 / 113 40% 1 18.03.2027 -
Nicolò Savona Nottingham Forest Ativo 129 / 146 40% 1 15.03.2027 -
Iuri Tabatadze Cádiz Ativo 131 / 116 40% 1 12.03.2027 -
Alexandr Chernikov Krasnodar Ativo 136 / 119 40% 3 09.03.2027 -
Rubens Dinamo Moscow Ativo 137 / 131 40% 1 08.03.2027 -
Josh Doig Sassuolo Ativo 129 / 125 40% 1 05.03.2027 -
Denis Makarov Krylya Sovetov Ativo 117 / 125 40% 3 04.03.2027 -
François Kamano Sochi Ativo 99 / 126 40% 1 04.03.2027 -
Gustavo Assunção Apollon Ativo 110 / 112 40% 1 01.03.2027 -
Juan Giménez Celta Ativo 128 / 134 40% 1 28.02.2027 -
Reda Khadra Qarabag Ativo 138 / 122 40% 1 25.02.2027 -
Siyanda Ndlovu Bloemfontein Celtic Ativo 110 / 106 40% 3 23.02.2027 -
Alexandr Siljanov Lokomotiv Moscow Ativo 123 / 126 40% 1 21.02.2027 -
Bongani Modiba Black Aces Ativo 105 / 126 40% 1 18.02.2027 -
Edgardo Fariña Nizhniy Novgorod Ativo 123 / 106 40% 1 18.02.2027 -
Jordan Lotomba Bloemfontein Celtic Ativo 126 / 114 40% 1 16.02.2027 -
Marat Bokoev Akron Ativo 128 / 130 40% 1 13.02.2027 -
Oswin Appollis Orlando Pirates Ativo 117 / 124 40% 1 11.02.2027 -
Leo Goglichidze Rodina Ativo 100 / 104 40% 1 11.02.2027 -
Tshepang Moremi Orlando Pirates Ativo 110 / 115 40% 1 10.02.2027 -
Fawaaz Basadien Mamelodi Sundowns Ativo 122 / 118 40% 1 10.02.2027 -
Thibaut Vargas Stade Lavallois Ativo 114 / 110 40% 1 06.02.2027 -
Ivan Oleinikov Krylya Sovetov Ativo 124 / 111 40% 1 30.01.2027 -
Yaroslav Gladyshev Dinamo Moscow Ativo 113 / 120 40% 1 29.01.2027 -
Aubrey Modiba Mamelodi Sundowns Ativo 111 / 113 40% 1 28.01.2027 -
Mandla Erasmus SuperSport United Ativo 130 / 128 40% 3 21.01.2027 -
Ruben van Bommel Ferencvaros Ativo 127 / 131 40% 2 18.01.2027 -
Thalente Mbatha Orlando Pirates Ativo 125 / 108 40% 1 18.01.2027 -
Marcelo Allende Mamelodi Sundowns Ativo 141 / 143 40% 2 16.01.2027 -
Róbert Polievka MTK Budapest Ativo 127 / 117 40% 1 10.01.2027 -
Lewis Morgan SuperSport United Ativo 119 / 119 40% 5 09.01.2027 -
Osher Davida Maccabi Tel Aviv Ativo 123 / 109 40% 1 06.01.2027 -
Nahuel Ulariaga Hapoel Beer Sheva Ativo 132 / 112 40% 2 04.01.2027 -
Evidence Makgopa Orlando Pirates Ativo 121 / 112 40% 1 21.12.2026 -
Tomás Molina Argentinos Juniors Ativo 138 / 134 40% 3 14.12.2026 -
Diego Valdés Vélez Ativo 120 / 139 40% 1 14.12.2026 -
Toni Fruk KV Mechelen Negociando 132 / 133 66% 1 01.12.2026 Aprovar
Konstantin Tyukavin Inter Negociando 132 / 133 66% 1 01.12.2026 Aprovar
Marcel Ruiz RC Lens Negociando 140 / 141 66% 1 01.12.2026 Aprovar
Isaac Essien WAFA Ativo 77 / 103 40% 1 01.12.2026 -
Moussa Dembélé CR Belouizdad Ativo 149 / 125 40% 2 30.11.2026 -
Gustavo Del Prete San Lorenzo Ativo 108 / 115 40% 1 30.11.2026 -
Ola Brynhildsen Bodo/Glimt Ativo 115 / 138 40% 2 27.11.2026 -
Ramiro Ruiz Rodríguez Atlético Tucumán Ativo 123 / 119 40% 3 26.11.2026 -
Alexis Cuello San Lorenzo Ativo 122 / 124 40% 5 25.11.2026 -
Manfred Ugalde Spartak Moscow Ativo 124 / 140 40% 2 24.11.2026 -
Luka Kurtovic NK Domzale Ativo 146 / 137 40% 1 23.11.2026 -
Ivan Sergeev Dinamo Moscow Ativo 131 / 115 40% 1 23.11.2026 -
Breel Embolo Atlanta United FC Ativo 150 / 137 40% 6 22.11.2026 -
Adilson Córdoba Ativo 129 / 133 40% 1 22.11.2026 -
Luciano Gondou CSKA Moscow Ativo 109 / 127 40% 1 20.11.2026 -
Andreas Helmersen Bodo/Glimt Ativo 118 / 127 40% 1 19.11.2026 -
Dejan Joveljić Seattle Sounders Ativo 137 / 120 40% 3 17.11.2026 -
Kelvin Yeboah Minnesota United FC Ativo 120 / 120 40% 3 16.11.2026 -
Esequiel Barco Spartak Moscow Ativo 130 / 130 40% 1 15.11.2026 -
Felipe Augusto Zenit Ativo 125 / 147 40% 1 12.11.2026 -
Dmitry Vorobjov Krasnodar Ativo 114 / 110 40% 1 12.11.2026 -
Gastón Lodico Racing Club Ativo 124 / 134 40% 1 11.11.2026 -
Morgan Guilavogui Real Salt Lake Ativo 125 / 127 40% 2 09.11.2026 -
Peter Christiansen Viking Ativo 126 / 133 40% 1 08.11.2026 -
David Barbona Defensa y Justicia Ativo 134 / 120 40% 3 07.11.2026 -
Mayckel Lahdo Malmo FF Ativo 112 / 128 40% 1 06.11.2026 -
Renzo Tesuri Atlético Tucumán Ativo 121 / 116 40% 1 06.11.2026 -
Cédric Don Maccabi Haifa Ativo 136 / 116 40% 1 05.11.2026 -
Lassina Traoré Shakhtar Ativo 136 / 113 40% 1 05.11.2026 -
Jesus Ferreira Seattle Sounders Ativo 122 / 130 40% 3 02.11.2026 -
Rubén Duarte Legia Ativo 146 / 122 40% 1 30.10.2026 -
Timo Werner San Jose Earthquakes Ativo 124 / 123 40% 1 28.10.2026 -
Everton Bala Levski Ativo 111 / 114 40% 1 28.10.2026 -
Marcelo Estigarribia Unión de Santa Fe Ativo 135 / 123 40% 1 27.10.2026 -
Edwuin Cetré Estudiantes Ativo 116 / 115 40% 2 26.10.2026 -
Youssoufa Moukoko FC Copenhagen Ativo 129 / 140 40% 1 25.10.2026 -
Job Ochieng Real Sociedad Ativo 85 / 100 40% 1 25.10.2026 -
Jonás Luna Santa Clara Ativo 109 / 134 40% 1 25.10.2026 -
Enzo Avaro Odd Ativo 108 / 123 40% 1 24.10.2026 -
David Miculescu FCSB Ativo 115 / 107 40% 1 24.10.2026 -
Sead Hakšabanović Malmo FF Ativo 138 / 117 40% 1 23.10.2026 -
Antony Portland Timbers Ativo 121 / 133 40% 1 23.10.2026 -
Razvan Balasa Crvena Zvezda Ativo 129 / 141 40% 2 21.10.2026 -
Theo Corbeanu Toronto FC Ativo 128 / 114 40% 1 21.10.2026 -
Ryan Gauld Vancouver Whitecaps Ativo 124 / 130 40% 1 17.10.2026 -
Ammar Ramadan DAC Dunajska Streda Ativo 139 / 125 40% 1 13.10.2026 -
Rodrigo Bogarín Barracas Central Ativo 110 / 125 40% 1 12.10.2026 -
Joaquín Gho Argentinos Juniors Ativo 136 / 115 40% 1 12.10.2026 -
Brais Méndez Columbus Crew Ativo 151 / 148 40% 1 12.10.2026 -
Kerem Aktürkoğlu Fenerbahce Ativo 160 / 148 40% 1 10.10.2026 -
Alexander Díaz Deportivo Riestra Ativo 106 / 113 40% 1 10.10.2026 -
Enzo Copetti Rosario Central Ativo 135 / 116 40% 1 10.10.2026 -
Bénie Traoré New York City Ativo 120 / 127 40% 1 10.10.2026 -
Antony Alonso Deportivo Riestra Ativo 127 / 128 40% 3 07.10.2026 -
Tadeo Allende Inter Miami CF Ativo 129 / 130 40% 2 05.10.2026 -
Louis Munteanu DC United Ativo 120 / 123 40% 1 05.10.2026 -
Sota Kitano Luzern Ativo 126 / 117 40% 1 04.10.2026 -
Cheikh Sabaly Vancouver Whitecaps Ativo 113 / 128 40% 1 02.10.2026 -
Wessam Abou Ali Columbus Crew Ativo 128 / 122 40% 3 01.10.2026 -
Rafael Navarro St. Louis CITY SC Ativo 136 / 128 40% 1 01.10.2026 -
Marcos Cuenca Zaragoza Ativo 101 / 104 40% 1 28.09.2026 -
Adnan Courtois KV Oostende Ativo 131 / 121 40% 1 26.09.2026 -
Lucas Souto Defensa y Justicia Ativo 134 / 119 40% 1 26.09.2026 -
Ezequiel Cañete Huachipato Ativo 121 / 110 40% 1 26.09.2026 -
Matías Fernández Colo-Colo Ativo 117 / 121 40% 1 25.09.2026 -
Kévin Denkey FC Cincinnati Ativo 124 / 125 40% 2 22.09.2026 -
Federico Girotti Alianza Lima Ativo 127 / 129 40% 1 22.09.2026 -
Gabriel Jesus Barcelona Ativo 144 / 156 40% 4 21.09.2026 -
Agustín Anello Philadelphia Union Ativo 132 / 122 40% 1 20.09.2026 -
Efraín Álvarez Guadalajara Ativo 126 / 133 40% 5 19.09.2026 -
Ozziel Herrera Tigres Ativo 125 / 125 40% 3 19.09.2026 -
Kevin Velasco Puebla Ativo 128 / 110 40% 1 19.09.2026 -
Myrto Uzuni Austin FC Ativo 144 / 138 40% 1 19.09.2026 -
Alfredo Morelos Atletico Nacional Ativo 126 / 129 40% 2 15.09.2026 -
Bamba Dieng Crvena Zvezda Ativo 109 / 137 40% 1 14.09.2026 -
Marcus Ingvartsen San Diego Football Club Ativo 130 / 124 40% 1 13.09.2026 -
Ismael Díaz Leon Ativo 130 / 123 40% 2 11.09.2026 -
Luciano Cosentino Wanderers Ativo 120 / 114 40% 1 10.09.2026 -
Carlos Rotondi Cruz Azul Ativo 133 / 133 40% 1 10.09.2026 -
Duvan Rangel La Equidad Ativo 145 / 139 40% 1 10.09.2026 -
Richard Martinez Veracruz Ativo 133 / 133 40% 1 09.09.2026 -
Nicolò Tresoldi Club Brugge Ativo 133 / 134 40% 1 07.09.2026 -
Leonardo Campana New England Revolution Ativo 129 / 129 40% 2 06.09.2026 -
Juninho Pumas UNAM Ativo 136 / 124 40% 2 04.09.2026 -
Petar Musa Adana Demirspor Ativo 147 / 126 40% 1 03.09.2026 -
Federico Viñas Toluca Ativo 116 / 125 40% 1 02.09.2026 -
Tai Baribo DC United Ativo 124 / 115 40% 1 27.08.2026 -
Sebastián Driussi River Plate Ativo 136 / 122 40% 1 25.08.2026 -
Pep Biel Charlotte Football Club Ativo 128 / 120 40% 1 25.08.2026 -
Jhonatan Candia Barracas Central Ativo 119 / 119 40% 1 24.08.2026 -
Juan Cruz de los Santos Nacional Ativo 128 / 120 40% 1 17.08.2026 -
Hugo Cuypers Monterrey Ativo 135 / 128 40% 1 16.08.2026 -
Martín Ojeda Orlando City Ativo 142 / 135 40% 1 08.08.2026 -
Carlos Moreno Pachuca Ativo 135 / 132 40% 1 03.08.2026 -
Fernando Tapia Club America Ativo 124 / 133 40% 1 03.08.2026 -
Jorge Hernández Tijuana Ativo 114 / 108 40% 1 02.08.2026 -